TimeEST,TemperatureF,Dew PointF,Humidity,Sea Level PressureIn,VisibilityMPH,Wind Direction,Wind SpeedMPH,Gust SpeedMPH,PrecipitationIn,Events,Conditions,WindDirDegrees,DateUTC
12:51 AM,36.0,32.0,86,30.24,10.0,NNE,5.8,-,N/A,,Scattered Clouds,20,2012-11-20 05:51:00
1:51 AM,36.0,32.0,86,30.22,10.0,NNE,5.8,-,N/A,,Scattered Clouds,30,2012-11-20 06:51:00
2:51 AM,35.1,32.0,89,30.21,10.0,NNE,6.9,-,N/A,,Mostly Cloudy,20,2012-11-20 07:51:00
3:51 AM,36.0,30.9,82,30.21,10.0,NNW,3.5,-,N/A,,Scattered Clouds,340,2012-11-20 08:51:00
4:51 AM,34.0,30.0,85,30.21,10.0,NNE,6.9,-,N/A,,Mostly Cloudy,20,2012-11-20 09:51:00
5:51 AM,35.1,30.9,85,30.20,10.0,North,6.9,-,N/A,,Mostly Cloudy,10,2012-11-20 10:51:00
6:51 AM,37.4,30.2,75,30.20,10.0,North,8.1,-,N/A,,Mostly Cloudy,360,2012-11-20 11:51:00
7:51 AM,39.0,33.1,79,30.21,10.0,NNE,6.9,-,N/A,,Mostly Cloudy,20,2012-11-20 12:51:00
8:51 AM,42.1,33.1,70,30.20,10.0,North,9.2,-,N/A,,Mostly Cloudy,10,2012-11-20 13:51:00
9:51 AM,42.1,33.1,70,30.20,10.0,North,9.2,-,N/A,,Mostly Cloudy,10,2012-11-20 14:51:00
10:51 AM,48.0,33.1,56,30.19,10.0,NNW,5.8,-,N/A,,Mostly Cloudy,340,2012-11-20 15:51:00
11:51 AM,50.0,32.0,50,30.15,10.0,NNE,6.9,-,N/A,,Mostly Cloudy,20,2012-11-20 16:51:00
12:51 PM,50.0,30.9,48,30.14,10.0,NNE,5.8,-,N/A,,Mostly Cloudy,30,2012-11-20 17:51:00
1:51 PM,50.0,30.0,46,30.13,10.0,NNE,8.1,-,N/A,,Overcast,20,2012-11-20 18:51:00
2:51 PM,50.0,28.9,44,30.12,10.0,NNE,8.1,-,N/A,,Overcast,20,2012-11-20 19:51:00
3:51 PM,50.0,28.0,43,30.13,10.0,North,6.9,-,N/A,,Mostly Cloudy,360,2012-11-20 20:51:00
4:51 PM,46.9,28.9,50,30.12,10.0,NNE,8.1,-,N/A,,Mostly Cloudy,30,2012-11-20 21:51:00
5:51 PM,46.9,28.9,50,30.13,10.0,NNE,6.9,-,N/A,,Mostly Cloudy,20,2012-11-20 22:51:00
6:51 PM,46.4,32.0,57,30.14,10.0,NNE,4.6,-,N/A,,Mostly Cloudy,20,2012-11-20 23:51:00
7:51 PM,46.9,35.1,63,30.14,10.0,NE,4.6,-,N/A,,Mostly Cloudy,50,2012-11-21 00:51:00
8:51 PM,45.0,35.1,68,30.14,10.0,NNE,3.5,-,N/A,,Mostly Cloudy,30,2012-11-21 01:51:00
9:51 PM,43.0,35.1,74,30.15,10.0,North,4.6,-,N/A,,Mostly Cloudy,360,2012-11-21 02:51:00
10:51 PM,43.0,35.1,74,30.15,10.0,NNE,4.6,-,N/A,,Mostly Cloudy,20,2012-11-21 03:51:00
11:51 PM,42.1,35.1,76,30.15,10.0,North,4.6,-,N/A,,Overcast,10,2012-11-21 04:51:00